Погода Богородицкое

Погода Богородицкое : погода сейчас, прогноз погоды и архив. Всё, что Вы хотите узнать о погоде Богородицкое!

Поиск расширенной информации на нашем сайте:

Другие новости

Новости СМИ2

Главная страница сайта

Новости сайта

03.07.2017

Напоминаем, что на нашем специализированном сайте Метеоцентр.Азия вы можете получить высокодетализированные автоматические прогнозы погоды по пунктам России, СНГ и мира в авиационном формате (включающие направление и скорость ветра, видимость, явления погоды, количество и форму облачности, нижнюю и верхнюю границу облачности).

Рекомендуем: Пожелаю всем кушать Super P-force в объёмах, которыми я ем.

Погода Богородицкое - сегодня

Время (UTC), дата Ветер
(°,м/с) 
Видим.   Явления Облачность Т
(°С)
Тd
(°С)
f(%) Тe
(°С)
Pmin
(гПа)
dP
(гПа)
Po
(мм)
O2
(г/м3)
Тmin Tmax R s Состояние
почвы
03 15.08.17 010 (С) 20000 м    10/4 2000 м средняя, верхняя 
[Ac trans|Ci fib]
+17.5 +15.1 86 +28  1018.3  0.5  744  278  +15.8         
06 15.08.17 030 (СВ) 20000 м    9/9 2000 м средняя 
[Ac trans]
+22.2 +15.9 67 +33  1019  1.1  745  274  +15.8         
09 15.08.17 060 (СВ) 20000 м    9/9 2000 м средняя 
[Ac trans]
+28.2 +13.4 40 +34  1018.7  0.3  745  269           
12 15.08.17 350 (С) 20000 м    10/4 2000 м средняя, верхняя 
[Ac trans|Ci fib]
+29.1 +15.1 43 +38  1018.6  745  268           
15 15.08.17 040 (СВ) 20000 м    6/6 2000 м средняя 
[Ac trans]
+28 +14.6 44 +36  1018.9  0.2  745  269           
21 15.08.17 040 (СВ) 10 км    3/3 2000 м средняя 
[Ac trans]
+21.1 +16.4 75 +32  1021.2  0.6  746  276           
00 16.08.17 040 (СВ) 10 км    ясно 
+18.4 +16 86 +31  1021.6  0.1  746  278           
03 16.08.17 030 (СВ) 20000 м    3/3 2000 м средняя 
[Ac trans]
+17.4 +15.7 90 +28  1022  0.3  747  279  +17.1         
06 16.08.17 040 (СВ) 20000 м    1/0 верхняя 
[Ci fib]
+21.2 +16.9 76 +33  1022.5  0.8  747  276  +17.1         
09 16.08.17 070 (В) 20000 м    3/3 1000 м 
[Cu hum]
+25.9 +16.9 58 +38  1022.1  747  271           
12 16.08.17 060 (СВ) 20000 м    8/8 600 м кучево-дожд. 
[Cb calv]
+27.6 +15.3 47 +37  1020.9  -0.9  746  270           
15 16.08.17 070 (В) 20000 м    9/6 600 м кучево-дожд., верхняя 
[Cb calv|Ci fib]
+26.7 +16.8 55 +39  1020.6  -0.4  746  270           
18 16.08.17 050 (СВ) 10 км    ясно 
+22.1 +15.8 67 +32  1021.4  0.4  746  275    +28.4       
21 16.08.17 080 (В) 10 км    ясно 
+18.7 +14.2 75 +27  1022.2  0.5  747  279           
00 17.08.17 040 (СВ) 10 км    ясно 
+18.2 +15 82 +28  1022.1  -0.2  747  279           
03 17.08.17 060 (СВ) 10 км    6/0 верхняя 
[Cc]
+16.2 +14.3 89 +25  1022.9  0.5  747  281  +15.9         
06 17.08.17 110 (В) 20000 м    3/1 2000 м средняя, верхняя 
[Ac trans|Ci fib]
+23.3 +13.9 56 +30  1022.7  0.5  747  275  +15.9         
09 17.08.17 090 (В) 6-10{11}  20000 м    1/1 1000 м 
[Cu hum]
+28 +11.3 35 +31  1021.8  -0.5  747  271           
12 17.08.17 080 (В) 4{10}  20000 м    8/8 600 м кучево-дожд. 
[Cb calv]
+29.4 +11.4 33 +33  1020.7  -0.9  746  269           
15 17.08.17 070 (В) 20000 м    3/3 1000 м 
[Cu hum]
+28.6 +11.7 35 +32  1020.1  -0.7  746  270           
18 17.08.17 060 (СВ) 10 км    1/1 2000 м средняя 
[Ac trans]
+24 +11.9 47 +28  1021.2  0.7  746  274    +29.6       
21 17.08.17 090 (В) 10 км    1/0 верхняя 
[Ci fib]
+18.8 +12.2 65 +24  1022.1  0.4  747  279           
00 18.08.17 080 (В) 10 км    1/0 верхняя 
[Ci fib]
+18.5 +12.2 67 +23  1022.1  747  279           
03 18.08.17 060 (СВ) 20000 м    3/3 2000 м средняя 
[Ac trans]
+16.7 +11.8 73 +22  1022  -0.3  746  281  +15.8         
06 18.08.17 100 (В) 20000 м    3/3 600 м 
[Cu hum]
+23.1 +11.5 48 +26  1021.9  0.5  747  275  +15.8         
Время (UTC), дата Ветер
(°,м/с) 
Видим.   Явления Облачность Т
(°С)
Тd
(°С)
f(%) Тe
(°С)
Pmin
(гПа)
dP
(гПа)
Po
(мм)
O2
(г/м3)
Тmin Tmax R s Состояние
почвы

Для получения пояснительной информации подведите курсор к названию столбца.

ПОГОДА Богородицкое - архив

Всё, что Вы хотите узнать о погоде Богородицкое - удобно и подробно!

Выберите нужную дату (начиная с 1 января 2015* года) и нажмите кнопку "Найти".
Будут отображены архивные сводки погоды по пункту Богородицкое, начиная с указанной даты.


Отображать данные в формате CSV (для использования в таблицах Excel)


Внимание! Наш архив погоды предназначен исключительно для личного некоммерческого использования в познавательных целях. Если Вам необходимы официальные справки о состоянии погоды (для производственных, юридических, коммерческих и т.п. целей), обращайтесь в органы Росгидромета.

*Примечание: данная дата относится к архиву по метеостанциям СССР (Россия, СНГ, Балтия).
Архив по метеостанциям Зарубежной Европы и Азии (кроме Китая) хранится 10 дней, по другим регионам земного шара (Китай, Африка, Америка, Австралия, Океания) - 1 день.

Богородицкое - район местоположения метеостанции


Название, широта, долгота, высота метеостанции:
Богородицкое 51.17°ш. 37.35°д. 226 м над ур. моря [Российская Федерация]

Дополнительная информация

В oтличие oт бoльшинства пoгoдных сайтoв мы публикуем пoдрoбную метеoинфoрмацию в детальнoм прoфессиoнальнoм фoрмате.

Характеристики температуры и влажнoсти вoздуха измеряются на высoте 2 м в тени вдали oт зданий и деревьев.
Скoрoсть ветра измеряется на высoте 10 м (на урoвне рoста челoвека скoрoсть ветра ниже в 1.5-2 раза). Если метеoстанция нахoдится в гoрoде или в лесу, тo скoрoсть ветра занижена на 2-4 м/с пo сравнению с oткрытым местoм. Скoрoсть ветра над акватoриями крупных рек и oзёр, а также на вершинах хoлмoв на 2-5 м/с выше, чем в oбычных услoвиях.
Атмoсфернoе давление в разных тoчках местнoсти мoжет значительнo oтличаться oт давления на метеoстанции, в зависимoсти oт услoвий рельефа (при пoдъёме на 10 м давление пoнижается примернo на 1 мм рт.ст.).